#timestamp,LO_Frequency,Hit,StdDev 
1567861215.2,286047002.5,N
1567861235.0,286047002.2,N
1567861235.9,286047002.2,N
1567861255.7,286047002.1,N
1567861275.6,286047003.1,N
1567861295.4,286047002.5,N
1567861315.3,286046999.7,N
1567861335.1,286047000.9,N
1567861355.8,286047000.4,N
1567861375.7,286047000.5,N
1567861395.5,286047002.6,N
1567861415.4,286047000.9,N
1567861435.2,286047000.2,N
1567861455.0,286047002.2,N
1567861455.9,286047002.2,N
1567861475.8,286047002.4,N
1567861495.6,286047000.1,N
1567861515.4,286046999.9,N
1567861535.3,286047005.6,Y
1567861555.1,286047003.5,P
1567861575.9,286047001.9,N
1567861595.7,286047000.9,N
1567861615.5,286046999.7,N
1567861635.4,286046999.7,N
1567861655.2,286047000.3,N
1567861675.0,286047000.0,N
1567861676.0,286047000.0,N
1567861695.8,286046999.5,N
1567861715.6,286046999.3,N
1567861735.5,286047000.0,N
1567861755.3,286047002.8,N
1567861775.1,286046999.9,N
1567861795.9,286046998.5,N
1567861815.7,286046998.9,N
1567861835.6,286046998.7,N
1567861855.4,286046999.5,N
1567861875.2,286046999.5,N
1567861895.1,286046998.8,N
1567861896.0,286046998.8,N
1567861915.8,286047002.1,N
1567861935.6,286047002.3,N
1567861955.5,286047001.3,N
1567861975.3,286047003.6,N
1567861995.2,286047004.3,N
1567862015.9,286047003.8,N
1567862035.7,286047003.0,N
1567862055.6,286047002.5,N
1567862075.4,286046998.8,N
1567862095.2,286047002.8,N
1567862115.1,286047000.5,N
1567862116.0,286047000.5,N
1567862135.8,286047000.9,N
1567862155.7,286047002.0,N
1567862175.5,286046998.2,N
1567862195.3,286046998.1,N
1567862215.2,286046998.4,N
1567862235.0,286046998.8,N
1567862235.9,286046998.8,N
1567862255.7,286046996.8,N
1567862275.6,286046997.0,N
1567862295.4,286047000.9,N
1567862315.3,286047001.8,N
1567862335.1,286047000.1,N
1567862336.0,286047000.1,N
1567862355.8,286047000.9,N
1567862375.7,286046998.1,N
1567862395.5,286046998.6,N
1567862415.3,286047000.8,N
1567862435.2,286047000.0,N
1567862455.0,286047002.8,N
1567862455.9,286047002.8,N
1567862475.8,286047004.2,N
1567862495.6,286047003.0,N
1567862515.4,286047003.9,N
1567862535.3,286047003.8,N
1567862555.1,286047001.4,N
1567862575.9,286047001.3,N
1567862595.7,286047002.5,N
1567862615.5,286047002.8,N
1567862635.4,286047004.2,N
1567862655.2,286047002.8,N
1567862675.0,286047000.6,N
1567862675.9,286047000.6,N
1567862695.8,286047000.4,N
1567862715.6,286047011.9,Y
1567862735.5,286046998.8,P
1567862755.3,286046997.2,N
1567862775.1,286046999.2,N
1567862795.9,286047000.8,N
1567862815.7,286046999.5,N
1567862835.5,286046997.1,N
1567862855.4,286046996.9,N
1567862875.2,286046996.9,N
1567862895.1,286047002.0,N
1567862896.0,286047002.0,N
1567862915.8,286047003.7,N
1567862935.6,286047004.4,N
1567862955.5,286047001.3,N
1567862975.3,286047003.4,N
1567862995.1,286047003.1,N
1567863015.9,286047004.0,N
1567863035.7,286047003.0,N
1567863055.6,286047006.0,N
1567863075.4,286047003.5,N
1567863095.2,286047003.2,N
1567863115.1,286047004.0,N
1567863116.0,286047004.0,N
1567863135.8,286047005.1,N
1567863155.6,286047005.2,N
1567863175.5,286047006.0,N
1567863195.3,286047002.9,N
1567863215.2,286047006.0,N
1567863235.9,286047007.2,N
1567863255.7,286047006.9,N
1567863275.6,286047006.7,N
1567863295.4,286047005.5,N
1567863315.2,286047005.4,N
1567863335.1,286047005.7,N
1567863336.0,286047005.7,N
1567863355.8,286047005.3,N
1567863375.7,286047005.6,N
1567863395.5,286047001.8,N
1567863415.3,286047000.0,N
1567863435.2,286047000.9,N
1567863455.0,286047000.9,N
1567863455.9,286047000.9,N
1567863475.7,286047002.1,N
1567863495.6,286047002.1,N
1567863515.4,286047000.2,N
1567863535.3,286046998.1,N
1567863555.1,286047000.2,N
1567863556.0,286047000.2,N
1567863575.8,286047002.3,N
1567863595.7,286047000.9,N
1567863615.5,286046999.5,N
1567863635.3,286046999.1,N
1567863655.2,286046999.2,N
1567863675.0,286046997.5,N
1567863675.9,286046997.5,N
1567863695.8,286046997.3,N
1567863715.6,286046997.7,N
1567863735.4,286046997.1,N
1567863755.3,286046996.8,N
1567863775.1,286046998.9,N
1567863795.9,286046998.8,N
1567863815.7,286046996.9,N
1567863835.5,286046999.5,N
1567863855.4,286047000.9,N
1567863875.2,286046999.3,N
1567863895.0,286047000.6,N
1567863895.9,286047000.6,N
1567863915.8,286047000.9,N
1567863935.6,286046998.6,N
1567863955.5,286046997.0,N
1567863975.3,286046997.1,N
1567863995.1,286046995.3,N
1567864015.9,286046993.8,Y
1567864035.7,286046994.1,P
1567864055.5,286046996.4,N
1567864075.4,286046994.3,N
1567864095.2,286046994.4,N
1567864115.1,286046996.1,N
1567864116.0,286046996.1,N
1567864135.8,286046995.2,N
1567864155.6,286046997.6,N
1567864175.5,286046999.6,N
1567864195.3,286046999.3,N
1567864215.1,286046996.5,N
1567864235.9,286046996.7,N
1567864255.7,286046997.3,N
1567864275.6,286046997.1,N
1567864295.4,286047000.9,N
1567864315.2,286046998.7,N
1567864335.1,286046996.6,N
1567864336.0,286046996.6,N
1567864355.8,286046995.7,N
1567864375.6,286046995.5,N
1567864395.5,286046999.5,N
1567864415.3,286046997.0,N
1567864435.2,286046996.5,N
1567864455.9,286046998.0,N
1567864475.7,286046995.0,N
1567864495.6,286046995.2,N
1567864515.4,286046997.3,N
1567864535.2,286046996.7,N
1567864555.1,286046995.1,N
1567864556.0,286046995.1,N
1567864575.8,286046995.2,N
1567864595.7,286046993.9,Y
1567864615.5,286046996.6,P
1567864635.3,286046996.8,P
1567864655.2,286046999.2,P
1567864675.0,286046998.4,N
1567864675.9,286046998.4,N
1567864695.7,286047000.9,N
1567864715.6,286046998.3,N
1567864735.4,286046999.2,N
1567864755.3,286046998.8,N
1567864775.1,286046999.9,N
1567864776.0,286046999.9,N
1567864795.8,286046999.0,N
